Date String (YYYY-MM-DD hh:mm:ss) UTC,Instrument flags,Ambient pressure (hPa),Sample flow (lpm),Bypass flow (lpm),Sample temperature (°C),Ambient temperature (°C),ASC tube jacket temperature (°C),LED temperature (°C),Box temperature (°C),Sample RH (%),Span deviation,Mass concentration (μg/m³),Mass concentration (μg/m³),Mass concentration (μg/m³)
DateTimeUTC,F1_M11,P_M11,Q1_M11,Q2_M11,T1_M11,T2_M11,T3_M11,T4_M11,T5_M11,U1_M11,ZSPAN_M11,X2_M11,X0_M11,X1_M11
2023-04-27 07:00:00,,0828.1,4.99,0.00,24.0,22.7,00.0,32.3,25.6,20.9,0000.0,0003.91,0008.52,0003.36
2023-04-27 07:01:00,,0828.1,5.00,0.00,24.0,22.7,00.0,32.3,25.6,21.4,0000.0,0003.93,0008.32,0003.37
2023-04-27 07:02:00,,0828.1,5.00,0.00,24.0,22.7,00.0,32.3,25.6,21.7,0000.0,0003.94,0008.35,0003.39
2023-04-27 07:03:00,,0828.1,5.00,0.00,24.0,22.7,00.0,32.3,25.7,21.8,0000.0,0003.94,0008.30,0003.41
2023-04-27 07:04:00,,0828.1,5.01,0.00,24.0,22.7,00.0,32.3,25.7,21.8,0000.0,0003.94,0009.04,0003.42
2023-04-27 07:05:00,,0828.1,5.00,0.00,24.0,22.7,00.0,32.3,25.7,21.7,0000.0,0003.92,0008.42,0003.43
2023-04-27 07:06:00,,0828.1,4.99,0.00,24.1,22.7,00.0,32.3,25.7,21.7,0000.0,0003.87,0008.32,0003.42
2023-04-27 07:07:00,,0828.1,5.00,0.00,24.1,22.7,00.0,32.3,25.7,21.7,0000.0,0003.88,0008.38,0003.43
2023-04-27 07:08:00,,0828.0,5.00,0.00,24.1,22.7,00.0,32.4,25.7,21.6,0000.0,0003.88,0008.35,0003.43
2023-04-27 07:09:00,,0828.0,5.00,0.00,24.1,22.7,00.0,32.4,25.7,21.5,0000.0,0003.86,0008.04,0003.43
2023-04-27 07:10:00,,0828.0,5.01,0.00,24.1,22.8,00.0,32.4,25.7,21.6,0000.0,0003.81,0007.83,0003.43
2023-04-27 07:11:00,,0828.0,5.01,0.00,24.1,22.8,00.0,32.4,25.7,21.6,0000.0,0003.80,0007.83,0003.44
2023-04-27 07:12:00,,0828.0,5.00,0.00,24.1,22.8,00.0,32.4,25.7,21.6,0000.0,0003.77,0008.62,0003.43
2023-04-27 07:13:00,,0828.0,5.00,0.00,24.1,22.8,00.0,32.4,25.7,21.6,0000.0,0003.77,0009.05,0003.43
2023-04-27 07:14:00,,0827.8,5.00,0.00,24.1,22.8,00.0,32.4,25.8,21.7,0000.0,0003.81,0009.48,0003.43
2023-04-27 07:15:00,,0827.8,5.00,0.00,24.1,22.8,00.0,32.4,25.7,21.8,0000.0,0003.85,0009.05,0003.44
2023-04-27 07:16:00,,0827.9,5.00,0.00,24.1,22.8,00.0,32.4,25.7,21.7,0000.0,0003.83,0009.19,0003.43
2023-04-27 07:17:00,,0827.9,5.00,0.00,24.1,22.8,00.0,32.4,25.7,21.5,0000.0,0003.84,0009.43,0003.43
2023-04-27 07:18:00,,0827.9,5.00,0.00,24.1,22.8,00.0,32.4,25.8,20.2,0000.0,0003.81,0009.34,0003.41
2023-04-27 07:19:00,,0828.0,4.99,0.00,24.1,22.8,00.0,32.4,25.8,20.3,0000.0,0003.78,0009.41,0003.39
2023-04-27 07:20:00,,0828.0,5.00,0.00,24.1,22.8,00.0,32.4,25.8,20.8,0000.0,0003.81,0010.26,0003.37
2023-04-27 07:21:00,,0828.1,4.99,0.00,24.1,22.8,00.0,32.4,25.8,21.1,0000.0,0003.84,0010.80,0003.37
2023-04-27 07:22:00,,0828.1,5.00,0.00,24.2,22.8,00.0,32.4,25.8,21.2,0000.0,0003.92,0011.00,0003.37
2023-04-27 07:23:00,,0828.1,5.00,0.00,24.2,22.8,00.0,32.4,25.8,20.2,0000.0,0003.93,0010.29,0003.36
2023-04-27 07:24:00,,0828.1,5.01,0.00,24.2,22.8,00.0,32.4,25.7,19.4,0000.0,0003.91,0009.99,0003.33
2023-04-27 07:25:00,,0828.1,5.00,0.00,24.2,22.8,00.0,32.5,25.8,19.1,0000.0,0003.87,0009.68,0003.29
2023-04-27 07:26:00,,0828.1,5.00,0.00,24.2,22.8,00.0,32.5,25.8,19.1,0000.0,0003.79,0009.49,0003.26
2023-04-27 07:27:00,,0828.0,4.99,0.00,24.2,22.7,00.0,32.5,25.8,19.0,0000.0,0003.76,0009.33,0003.22
2023-04-27 07:28:00,,0828.0,4.99,0.00,24.1,22.7,00.0,32.5,25.7,19.0,0000.0,0003.75,0009.08,0003.19
2023-04-27 07:29:00,,0828.1,5.00,0.00,24.1,22.6,00.0,32.5,25.7,18.9,0000.0,0003.73,0009.15,0003.17
2023-04-27 07:30:00,,0828.1,5.00,0.00,24.1,22.6,00.0,32.5,25.7,18.9,0000.0,0003.71,0009.15,0003.15
2023-04-27 07:31:00,,0828.0,5.01,0.00,24.1,22.6,00.0,32.5,25.7,18.8,0000.0,0003.66,0008.43,0003.13
2023-04-27 07:32:00,,0828.0,5.00,0.00,24.1,22.6,00.0,32.5,25.7,18.8,0000.0,0003.60,0007.81,0003.09
2023-04-27 07:33:00,,0828.0,5.00,0.00,24.1,22.6,00.0,32.5,25.7,19.0,0000.0,0003.50,0007.59,0003.03
2023-04-27 07:34:00,,0827.9,4.99,0.00,24.1,22.6,00.0,32.5,25.7,19.0,0000.0,0003.48,0007.41,0003.01
2023-04-27 07:35:00,,0827.8,5.00,0.00,24.1,22.5,00.0,32.5,25.7,19.0,0000.0,0003.45,0007.04,0003.00
2023-04-27 07:36:00,,0827.8,5.00,0.00,24.1,22.5,00.0,32.5,25.6,19.1,0000.0,0003.46,0006.88,0002.98
2023-04-27 07:37:00,,0827.9,5.00,0.00,24.1,22.5,00.0,32.4,25.6,19.1,0000.0,0003.48,0006.32,0002.98
2023-04-27 07:38:00,,0827.7,5.00,0.00,24.1,22.5,00.0,32.4,25.7,18.9,0000.0,0003.51,0006.24,0003.00
2023-04-27 07:39:00,,0827.8,5.00,0.00,24.1,22.4,00.0,32.4,25.7,19.0,0000.0,0003.49,0006.10,0003.03
2023-04-27 07:40:00,,0827.8,5.00,0.00,24.1,22.5,00.0,32.4,25.6,19.1,0000.0,0003.48,0005.86,0003.05
2023-04-27 07:41:00,,0827.8,5.01,0.00,24.0,22.4,00.0,32.4,25.6,19.3,0000.0,0003.49,0005.51,0003.06
2023-04-27 07:42:00,,0827.8,5.00,0.00,24.0,22.4,00.0,32.4,25.5,19.6,0000.0,0003.50,0005.44,0003.08
2023-04-27 07:43:00,,0827.7,4.99,0.00,24.0,22.4,00.0,32.4,25.5,20.1,0000.0,0003.53,0006.20,0003.12
2023-04-27 07:44:00,,0827.7,4.98,0.00,24.0,22.3,00.0,32.4,25.5,20.7,0000.0,0003.57,0007.06,0003.14
2023-04-27 07:45:00,,0827.7,5.00,0.00,24.0,22.3,00.0,32.4,25.5,21.1,0000.0,0003.60,0007.60,0003.18
2023-04-27 07:46:00,,0827.7,5.01,0.00,23.9,22.3,00.0,32.4,25.5,21.3,0000.0,0003.66,0008.34,0003.23
2023-04-27 07:47:00,,0827.7,5.01,0.00,23.9,22.3,00.0,32.4,25.5,21.6,0000.0,0003.71,0008.41,0003.29
2023-04-27 07:48:00,,0827.7,5.00,0.00,23.9,22.3,00.0,32.4,25.5,20.6,0000.0,0003.75,0008.49,0003.33
2023-04-27 07:49:00,,0827.7,5.00,0.00,23.9,22.3,00.0,32.4,25.5,20.8,0000.0,0003.80,0008.59,0003.35
2023-04-27 07:50:00,,0827.7,5.00,0.00,23.9,22.2,00.0,32.3,25.5,20.0,0000.0,0003.83,0008.65,0003.37
2023-04-27 07:51:00,,0827.7,4.99,0.00,23.9,22.2,00.0,32.3,25.4,18.2,0000.0,0003.84,0008.67,0003.37
2023-04-27 07:52:00,,0827.7,4.99,0.00,23.8,22.1,00.0,32.3,25.3,17.2,0000.0,0003.83,0008.62,0003.37
2023-04-27 07:53:00,,0827.7,4.99,0.00,23.8,22.1,00.0,32.3,25.3,16.7,0000.0,0003.81,0008.55,0003.36
2023-04-27 07:54:00,,0827.7,4.99,0.00,23.7,22.0,00.0,32.3,25.1,16.8,0000.0,0003.81,0008.34,0003.35
2023-04-27 07:55:00,,0827.7,5.00,0.00,23.7,22.0,00.0,32.2,25.1,16.8,0000.0,0003.77,0007.78,0003.32
2023-04-27 07:56:00,,0827.7,5.01,0.00,23.7,21.9,00.0,32.2,25.1,16.8,0000.0,0003.73,0007.33,0003.28
2023-04-27 07:57:00,,0827.6,5.01,0.00,23.7,21.9,00.0,32.2,25.1,17.1,0000.0,0003.67,0006.22,0003.24
2023-04-27 07:58:00,,0827.5,5.00,0.00,23.6,21.9,00.0,32.2,25.1,16.9,0000.0,0003.62,0006.03,0003.19
2023-04-27 07:59:00,,0827.5,5.01,0.00,23.6,21.8,00.0,32.2,25.1,16.4,0000.0,0003.56,0005.82,0003.14
